{"data":{"norad_id":59400,"intl_designator":"2024-064C","name":"STARLINK-31545","alt_names":[],"object_type":"PAYLOAD","status":"ACTIVE","operator":null,"country":"US","launch_date":"2024-04-05","launch_site_code":"AFETR","launch_vehicle":null,"mission":null,"orbit_class":"UNKNOWN","rcs_meters":null,"size_class":null,"mass_kg":null,"dimensions":null,"purposes":["comms"],"wikipedia_slug":null,"has_3d_model":false,"image_url":null,"decayed_at":null,"tle_current":{"epoch":"2026-05-24T21:35:21.248736Z","epoch_age_seconds":80831,"freshness":"FRESH","line1":"1 59400U 24064C   26144.89955149  .00001488  00000+0  63561-4 0  9996","line2":"2 59400  43.0024 345.5619 0001221 268.0351  92.0360 15.27584853120884","mean_motion":15.27584853,"eccentricity":0.0001221,"inclination_deg":43.0024,"raan_deg":345.5619,"arg_perigee_deg":268.0351,"mean_anomaly_deg":92.036,"bstar":6.3561e-5,"rev_number":12088,"period_min":94.26644923665,"perigee_km":482.19681540225,"apogee_km":483.87231349829,"semimajor_km":6861.1715644503,"source":"CELESTRAK","updated_at":"2026-05-25T13:38:18.939087Z"}}}